Home   Weather   Lillesand   Past weeks

Flag for Norway Past Weather in Lillesand, Norway — Yesterday and Last 2 Weeks

Now
57 °F

Cool.


Feels Like: 57 °F
Forecast: 45 / 55 °F
Wind: 3 mph from Southwest

Location: Kristiansand / Kjevik

Current Time: Oct 1, 2016 at 3:55:33 PM

Latest Report: Oct 1, 2016 at 3:00 PM


Visibility: N/A

Pressure: 29.78 "Hg

Humidity: 65%

Dew Point: 45 °F

Location of LillesandLocation

Past Weather in Lillesand — Graph

°F

Lillesand Temperature Yesterday

Maximum temperature yesterday: 56 °F (at 1:00 PM)
Minimum temperature yesterday: 47 °F (at 8:00 AM)
Average temperature yesterday: 52 °F

High & Low Weather Summary for the Past Weeks

 TemperatureHumidityPressure
High69 °F (Sep 25, 2:00 PM)99% (Sep 20, 1:00 AM)30.26 "Hg (Sep 20, 1:00 AM)
Low39 °F (Oct 1, 7:00 AM)51% (Sep 23, 3:00 PM)29.26 "Hg (Sep 29, 5:00 PM)
Average56 °F84%30.00 "Hg
* Reported Sep 16 2:00 PM — Oct 1 2:00 PM, Lillesand, Weather by CustomWeather, © 2016

Note: Actual official high and low records may vary slightly from our data, if they occured in-between our weather recording intervals... More about our weather records

Advertising

Lillesand Weather History for the Previous 24 Hours

Scroll right to see more
 ConditionsComfort  
Time TempWeatherWind HumidityBarometerVisibility
2:00 PM
Sat, Oct 1
58 °FCool.5 mph66%29.79 "HgN/A
1:00 PM57 °FCool.3 mph70%29.79 "HgN/A
12:00 PM57 °FCool.3 mph72%29.79 "HgN/A
11:00 AM53 °FCool.2 mph80%29.79 "HgN/A
10:00 AM50 °FCool.1 mph89%29.78 "HgN/A
9:00 AM45 °FQuite cool.2 mph96%29.77 "HgN/A
8:00 AM40 °FQuite cool.2 mph97%29.75 "HgN/A
7:00 AM39 °FChilly.3 mph98%29.72 "HgN/A
6:00 AM41 °FQuite cool.1 mph99%29.71 "HgN/A
5:00 AM43 °FQuite cool.1 mph89%29.70 "HgN/A
4:00 AM47 °FCool.2 mph89%29.68 "HgN/A
3:00 AM49 °FCool.3 mph85%29.69 "HgN/A
2:00 AM48 °FCool.2 mph87%29.68 "HgN/A
1:00 AM49 °FCool.3 mph82%29.67 "HgN/A
12:00 AM50 °FCool.5 mph80%29.66 "HgN/A
11:00 PM
Fri, Sep 30
50 °FCool.5 mph80%29.64 "HgN/A
10:00 PM50 °FCool.6 mph79%29.63 "HgN/A
9:00 PM50 °FCool.5 mph80%29.61 "HgN/A
8:00 PM52 °FCool.7 mph76%29.60 "HgN/A
7:00 PM53 °FCool.7 mph73%29.58 "HgN/A
6:00 PM54 °FCool.9 mph64%29.57 "HgN/A
5:00 PM53 °FCool.7 mph74%29.56 "HgN/A
4:00 PM53 °FCool.8 mph70%29.57 "HgN/A
3:00 PM56 °FCool.9 mph62%29.56 "HgN/A
Weather by CustomWeather, © 2016

See weather overviewHow to use our weather pages